[[{"header":{"parameterUnit":"m.s-1","parameterCategory":1,"la1":30.2991,"la2":30.254,"lo1":-89.0895,"lo2":-89.0444,"dy":0.0017,"dx":0.0017,"nx":28,"ny":28,"refTime":"2023-09-04T09:00:00:Z","depth":0,"parameterNumber":2,"parameterNumberName":"U-component_of_WINDS"},"data":[0,0,0,0,0,0,0,0,0,0,0,0,0,0,0,0,0,0,0,0,0,0,0,0,0,0,0,0,0,0,0,0,0,0,0,0,0,0,0,0,0,0,0,0,0,0,0,0,0,0,0,0,0,0,0,0,0,0,-2.7358,-2.7358,0,-2.7382,-2.7382,-2.7382,-2.7323,-2.7321,-2.7319,-2.7317,-2.7343,-2.7345,-2.7348,0,0,0,0,0,0,0,0,0,0,0,0,0,-2.7264,-2.7266,-2.7358,-2.7358,-2.7359,-2.7382,-2.7382,-2.7382,-2.7323,-2.7321,-2.7319,-2.7316,-2.7342,-2.7345,-2.7348,0,0,0,0,0,0,0,0,0,0,0,0,0,-2.7298,-2.7267,-2.7358,-2.7332,-2.733,-2.7382,-2.7382,-2.7383,-2.7324,-2.7321,-2.7318,-2.7315,-2.7341,-2.7345,-2.7348,-2.7427,0,0,-2.7359,-2.7361,0,0,0,0,0,0,0,0,-2.7296,-2.7302,-2.7335,-2.7334,-2.7331,-2.7346,-2.7358,-2.7398,-2.7324,-2.7326,-2.7317,-2.7314,-2.7346,-2.7349,-2.736,-2.7428,-2.7429,-2.736,-2.7362,-2.7363,-2.7364,0,0,0,0,0,0,0,-2.7294,-2.73,-2.7367,-2.7336,-2.7334,-2.732,-2.7321,-2.7365,-2.7352,-2.7326,-2.7321,-2.7325,-2.7345,-2.7357,-2.736,-2.743,-2.7359,-2.7363,-2.7365,-2.7366,-2.7566,-2.7568,0,0,0,0,0,0,-2.7295,-2.7299,-2.7367,-2.7368,-2.7306,-2.7324,-2.7326,-2.7345,-2.7351,-2.7349,-2.7327,-2.7322,-2.7352,-2.7356,-2.7361,-2.7454,-2.7363,-2.7367,-2.7369,-2.7562,-2.7566,-2.757,0,0,0,0,0,0,-2.7293,-2.7301,-2.7366,-2.7332,-2.7339,-2.7328,-2.735,-2.7346,-2.7358,-2.7352,-2.735,-2.7342,-2.735,-2.7356,-2.7411,-2.7454,-2.7368,-2.7372,-2.7559,-2.7564,-2.7568,-2.7641,0,0,0,0,0,0,-2.729,-2.7301,-2.733,-2.7333,-2.7341,-2.7415,-2.7353,-2.7349,-2.7365,-2.7358,-2.7365,-2.7364,-2.7348,-2.7406,-2.7415,-2.7458,-2.7375,-2.7555,-2.7561,-2.7566,-2.7635,-2.7648,-2.7659,0,0,0,0,0,-2.7287,-2.735,-2.7332,-2.734,-2.7377,-2.7418,-2.7422,-2.7403,-2.7368,-2.7398,-2.7394,-2.7364,-2.7449,-2.7412,-2.7422,-2.7466,-2.7552,-2.7559,-2.7566,-2.7629,-2.7645,-2.7659,0,0,0,0,0,0,-2.7351,-2.7349,-2.733,-2.7395,-2.7407,-2.7408,-2.7444,-2.742,-2.7442,-2.7435,-2.741,-2.7412,-2.7473,-2.7475,-2.7435,-2.7544,-2.7494,-2.7504,-2.754,-2.7554,-2.7566,-2.7564,-2.7378,0,0,0,0,0,-2.7373,-2.7406,-2.7402,-2.746,-2.7467,-2.7455,-2.7472,-2.7456,-2.7467,-2.7472,-2.7473,-2.7486,-2.7515,-2.7535,-2.7562,-2.7636,-2.7637,-2.7671,-2.7683,-2.7693,-2.7701,-2.7741,-2.7756,-2.7592,-2.7592,-2.7592,0,0,-2.7419,-2.7422,-2.7443,-2.7473,-2.7481,-2.7516,-2.746,-2.7498,-2.7524,-2.7478,-2.753,-2.7532,-2.7545,-2.761,-2.7639,-2.7614,-2.7747,-2.7702,-2.771,-2.7712,-2.775,-2.7765,-2.7779,-2.7597,-2.7596,-2.7596,0,0,-2.7518,-2.7524,-2.7573,-2.7582,-2.7594,-2.7586,-2.7598,-2.7603,-2.7602,-2.7654,-2.7621,-2.7652,-2.7703,-2.7714,-2.7726,-2.7833,-2.7806,-2.7843,-2.7905,-2.7945,-2.7958,-2.7969,-2.8007,-2.8021,-2.7851,-2.7851,-2.7852,0,-2.7573,-2.7623,-2.7602,-2.7643,-2.7658,-2.7618,-2.7669,-2.7679,-2.7699,-2.7711,-2.7683,-2.7748,-2.7753,-2.7821,-2.7847,-2.7859,-2.7872,-2.7841,-2.7957,-2.7969,-2.7979,-2.8015,-2.803,-2.7856,-2.7855,-2.7855,-2.7854,0,-2.769,-2.7726,-2.7764,-2.7785,-2.7805,-2.785,-2.7837,-2.7859,-2.7842,-2.7837,-2.7892,-2.7898,-2.7926,-2.7941,-2.7925,-2.8008,-2.7992,-2.7961,-2.7911,-2.7999,-2.8033,-2.8047,-2.7862,-2.786,-2.7859,-2.7858,0,0,-2.7829,-2.7839,-2.7853,-2.7863,-2.7875,-2.7902,-2.7947,-2.7974,-2.7994,-2.8011,-2.8048,-2.8094,-2.8066,-2.808,-2.8065,-2.81,-2.8185,-2.8065,-2.8065,-2.8087,-2.8278,-2.83,-2.8316,-2.8168,-2.8171,-2.8173,-2.8276,0,-2.7928,-2.8004,-2.7987,-2.8062,-2.8095,-2.806,-2.8099,-2.8111,-2.8109,-2.8137,-2.8135,-2.8167,-2.8128,-2.8137,-2.817,-2.8168,-2.8223,-2.816,-2.8203,-2.8205,-2.82,-2.8334,-2.8358,-2.8455,-2.8289,-2.8292,-2.8293,0,-2.8052,-2.8074,-2.8152,-2.816,-2.8173,-2.8209,-2.8233,-2.8261,-2.8275,-2.8271,-2.8288,-2.8267,-2.8313,-2.8263,-2.8326,-2.8284,-2.8301,-2.8304,-2.8307,-2.8309,-2.8254,-2.834,-2.8485,-2.85,-2.8314,-2.8312,-2.8311,0,-2.8146,-2.8194,-2.8248,-2.8257,-2.8267,-2.8294,-2.8299,-2.831,-2.8328,-2.835,-2.8362,-2.839,-2.8404,-2.8427,-2.8414,-2.8379,-2.848,-2.843,-2.8479,-2.8479,-2.85,-2.8499,-2.865,-2.8513,-2.8512,-2.8512,-2.8512,0,-2.8257,-2.8307,-2.829,-2.8323,-2.8378,-2.8359,-2.8415,-2.8416,-2.8427,-2.846,-2.8432,-2.8464,-2.8446,-2.8477,-2.8468,-2.8522,-2.853,-2.8528,-2.8525,-2.853,-2.853,-2.854,-2.8533,-2.8516,-2.8515,-2.8514,-2.8514,0,-2.837,-2.8361,-2.8417,-2.8423,-2.8426,-2.8466,-2.8471,-2.8503,-2.8499,-2.8542,-2.8551,-2.8545,-2.858,-2.8571,-2.8609,-2.8603,-2.8672,-2.8661,-2.8667,-2.8664,-2.8714,-2.871,-2.8876,-2.8897,-2.8747,-2.8748,-2.8749,0,-2.8441,-2.8479,-2.8489,-2.8509,-2.8517,-2.855,-2.8568,-2.8552,-2.8573,-2.8593,-2.8622,-2.8655,-2.868,-2.874,-2.8739,-2.8769,-2.8758,-2.8815,-2.8762,-2.8767,-2.8759,-2.8757,-2.8761,-2.8825,-2.8826,-2.8828,-2.8829,0,-2.8569,-2.8563,-2.859,-2.8617,-2.864,-2.8661,-2.8678,-2.8697,-2.8682,-2.8707,-2.8743,-2.8763,-2.8803,-2.8837,-2.8865,-2.8872,-2.8849,-2.8846,-2.8859,-2.8864,-2.8866,-2.8866,-2.8695,-2.8842,-2.884,-2.8839,-2.8839,-2.8838,-2.8663,-2.8695,-2.8708,-2.874,-2.8752,-2.8769,-2.8799,-2.88,-2.8829,-2.886,-2.8849,-2.8891,-2.8906,-2.8941,-2.8952,-2.8985,-2.8963,-2.8982,-2.8987,-2.8991,-2.8998,-2.8862,-2.899,-2.8989,-2.8989,-2.8989,-2.8989,0,-2.8789,-2.8796,-2.8826,-2.8852,-2.8878,-2.8854,-2.8873,-2.8896,-2.8933,-2.8949,-2.8975,-2.9017,-2.905,-2.9054,-2.9085,-2.9111,-2.9101,-2.912,-2.9118,-2.912,-2.9015,-2.9,-2.9127,-2.9127,-2.9127,-2.9127,-2.9127,-2.9127,-2.8858,-2.8911,-2.8907,-2.8966,-2.8973,-2.9013,-2.9026,-2.9043,-2.9055,-2.9104,-2.9131,-2.9133,-2.9144,-2.9177,-2.9207,-2.9207,-2.922,-2.9243,-2.9239,-2.9141,-2.9127,-2.9114,-2.91,-2.9246,-2.9246,-2.9341,-2.9342,-2.9343]},{"header":{"parameterUnit":"m.s-1","parameterCategory":1,"la1":30.2991,"la2":30.254,"lo1":-89.0895,"lo2":-89.0444,"dy":0.0017,"dx":0.0017,"nx":28,"ny":28,"refTime":"2023-09-04T09:00:00:Z","depth":0,"parameterNumber":3,"parameterNumberName":"V-component_of_WINDS"},"data":[0,0,0,0,0,0,0,0,0,0,0,0,0,0,0,0,0,0,0,0,0,0,0,0,0,0,0,0,0,0,0,0,0,0,0,0,0,0,0,0,0,0,0,0,0,0,0,0,0,0,0,0,0,0,0,0,0,0,2.1619,2.1619,0,2.1662,2.1663,2.1663,2.1684,2.1684,2.1684,2.1684,2.1726,2.1727,2.1728,0,0,0,0,0,0,0,0,0,0,0,0,0,2.1551,2.1552,2.1619,2.1619,2.162,2.1662,2.1663,2.1663,2.1684,2.1684,2.1684,2.1684,2.1726,2.1727,2.1728,0,0,0,0,0,0,0,0,0,0,0,0,0,2.1586,2.1553,2.1619,2.1635,2.1637,2.1662,2.1663,2.1664,2.1684,2.1684,2.1684,2.1684,2.1725,2.1727,2.1728,2.1739,0,0,2.1734,2.1734,0,0,0,0,0,0,0,0,2.1584,2.1588,2.1632,2.1634,2.1637,2.1668,2.1654,2.1689,2.1684,2.1666,2.1684,2.1684,2.1706,2.171,2.1718,2.1741,2.1743,2.1734,2.1735,2.1735,2.1736,0,0,0,0,0,0,0,2.1582,2.1587,2.1636,2.1633,2.1636,2.164,2.1645,2.1661,2.1686,2.1668,2.167,2.1675,2.1708,2.1716,2.1719,2.1743,2.1734,2.1735,2.1736,2.1737,2.1777,2.1777,0,0,0,0,0,0,2.1577,2.1585,2.1635,2.1637,2.161,2.1641,2.1647,2.1658,2.1686,2.169,2.1675,2.1675,2.1713,2.1717,2.172,2.1735,2.1735,2.1737,2.1738,2.1777,2.1777,2.1777,0,0,0,0,0,0,2.1575,2.1581,2.1633,2.1611,2.1618,2.1642,2.1655,2.1659,2.1667,2.1691,2.1695,2.1679,2.1713,2.1718,2.1734,2.1736,2.1738,2.1739,2.1777,2.1777,2.1777,2.1763,0,0,0,0,0,0,2.1573,2.158,2.1585,2.1611,2.1619,2.1647,2.1655,2.166,2.167,2.1672,2.1696,2.17,2.1714,2.1732,2.1736,2.1739,2.1741,2.1777,2.1777,2.1777,2.1763,2.1762,2.1762,0,0,0,0,0,2.1571,2.1579,2.1585,2.1591,2.1626,2.1647,2.1651,2.1668,2.1671,2.1675,2.169,2.1699,2.1735,2.1733,2.1738,2.1741,2.1777,2.1777,2.1777,2.1764,2.1763,2.1762,0,0,0,0,0,0,2.1551,2.1583,2.159,2.1607,2.1624,2.165,2.1657,2.1666,2.1682,2.1683,2.1702,2.1707,2.1722,2.1733,2.173,2.1753,2.1757,2.1758,2.1745,2.1744,2.1744,2.174,2.1742,0,0,0,0,0,2.1549,2.1564,2.159,2.1603,2.1611,2.1632,2.1642,2.1653,2.1672,2.1679,2.1695,2.1711,2.1726,2.1736,2.1751,2.1765,2.177,2.1769,2.1769,2.1768,2.1769,2.1777,2.1777,2.1777,2.1777,2.1777,0,0,2.1544,2.1563,2.1572,2.1599,2.1614,2.1629,2.1638,2.1653,2.1664,2.168,2.1697,2.171,2.1729,2.1744,2.1752,2.1754,2.177,2.1768,2.1768,2.1769,2.1777,2.1777,2.1777,2.1777,2.1777,2.1777,0,0,2.1544,2.156,2.1572,2.1587,2.1609,2.1623,2.1626,2.1651,2.166,2.1677,2.169,2.1702,2.1728,2.1742,2.1752,2.1756,2.1765,2.176,2.1757,2.1764,2.1764,2.1764,2.1766,2.1766,2.1761,2.1761,2.1761,0,2.1535,2.1558,2.1577,2.1591,2.1603,2.162,2.1632,2.1645,2.167,2.1678,2.168,2.1713,2.1727,2.1746,2.1747,2.1755,2.1758,2.1758,2.1763,2.1763,2.1764,2.1765,2.1766,2.176,2.1761,2.1761,2.1761,0,2.1546,2.1562,2.1569,2.1595,2.1607,2.162,2.164,2.165,2.166,2.1674,2.1691,2.1709,2.1728,2.1733,2.1743,2.1753,2.1754,2.176,2.1764,2.1763,2.1765,2.1765,2.1759,2.176,2.176,2.176,0,0,2.1534,2.157,2.1573,2.1585,2.1611,2.1623,2.1636,2.1656,2.1664,2.1681,2.1693,2.1714,2.172,2.1731,2.1743,2.1749,2.1752,2.1754,2.1755,2.1753,2.1764,2.176,2.176,2.1758,2.1758,2.1758,2.1763,0,2.1537,2.1564,2.1581,2.16,2.1615,2.1631,2.1642,2.1659,2.1672,2.1686,2.17,2.1715,2.1721,2.1728,2.1735,2.175,2.1754,2.175,2.1768,2.1769,2.1763,2.1761,2.1757,2.176,2.1763,2.1764,2.1764,0,2.1544,2.1562,2.1583,2.1607,2.1614,2.1625,2.1644,2.1657,2.1676,2.1685,2.1698,2.171,2.1724,2.1727,2.1747,2.1744,2.1752,2.176,2.1761,2.1763,2.1766,2.1764,2.1762,2.1762,2.1765,2.1765,2.1765,0,2.1533,2.1562,2.1579,2.1588,2.1617,2.1624,2.1637,2.1656,2.1667,2.1683,2.169,2.1708,2.1718,2.1731,2.1747,2.1747,2.1765,2.1769,2.1772,2.1772,2.1775,2.1775,2.1774,2.178,2.178,2.178,2.178,0,2.1535,2.1547,2.1574,2.1584,2.1598,2.1618,2.1631,2.1644,2.1661,2.1673,2.1688,2.1699,2.1719,2.1732,2.1745,2.1759,2.1763,2.177,2.1774,2.1769,2.1768,2.1775,2.1775,2.178,2.178,2.178,2.178,0,2.1525,2.1544,2.1563,2.1589,2.1596,2.1605,2.1627,2.1637,2.1651,2.1667,2.1671,2.1693,2.1709,2.1727,2.1748,2.1757,2.1771,2.1775,2.1765,2.1766,2.1769,2.1768,2.1773,2.1774,2.1779,2.1779,2.1779,0,2.1525,2.1535,2.1562,2.1572,2.1584,2.16,2.1611,2.163,2.1642,2.1664,2.1671,2.1689,2.1704,2.173,2.1747,2.1764,2.1769,2.1769,2.1771,2.1767,2.1769,2.1768,2.1769,2.1768,2.1768,2.1768,2.1768,0,2.1522,2.1531,2.1548,2.1568,2.1581,2.1597,2.1614,2.1621,2.1643,2.1655,2.1672,2.1684,2.1707,2.1725,2.1744,2.1755,2.1765,2.1767,2.1769,2.1764,2.1758,2.1762,2.1763,2.1767,2.1767,2.1767,2.1767,2.1767,2.1518,2.1527,2.1548,2.1566,2.1581,2.1596,2.1607,2.1623,2.1638,2.1659,2.1669,2.1687,2.1705,2.1732,2.1743,2.1757,2.176,2.1762,2.1763,2.1763,2.1762,2.1756,2.176,2.176,2.176,2.176,2.176,0,2.1516,2.153,2.1547,2.157,2.1584,2.1593,2.1612,2.1623,2.1638,2.1655,2.167,2.169,2.1707,2.1726,2.1744,2.1751,2.1756,2.1755,2.1755,2.1757,2.1758,2.1755,2.1751,2.1751,2.1751,2.1751,2.1751,2.1751,2.1517,2.1534,2.1545,2.1569,2.1583,2.1602,2.1612,2.1626,2.1639,2.1662,2.1676,2.1689,2.1706,2.1725,2.1741,2.1746,2.1752,2.175,2.1756,2.1756,2.1757,2.1758,2.1755,2.1751,2.1751,2.1754,2.1754,2.1754]}]]